STARLINK-34496, 64476

Orbit data source: Space-Track

STARLINK-34496, 64476 is a payload satellite owned by SpaceX/Seattle (US) in LEO that was launched on Mon, 23 Jun 2025 UTC via an FALCON 9 launch vehicle from the Air Force Eastern Test Range (AFETR). Payload-class satellites include a variety of spacecraft equipped with specific instruments for various scientific and technological missions. These include communications satellites like Starlink; space stations such as the ISS; scientific satellites like the Hubble; Earth observation satellites from companies like Planet Labs, Umbra, and HawkEye 360; GPS; miniature CubeSats for education and research; and military/defense satellites.

Loading next visibility...
Identifier
64476, 2025-133E
Orbit
LEO
Last TLE update
6 hours ago
Origin
Manufacturer
SpaceX/Seattle
Mission
Operational spacecraft
Bus & Motor
STARLINK V2MO, Unknown motor
Mass
575 kg wet, ~530 kg dry
Launch date (UTC)
2025-06-23 (1 week ago)
Launch vehicle
FALCON 9
Launch site
Air Force Eastern Test Range (AFETR)
Object type
Payload
Rocket body
Debris
Shape & HBR
Unknown
Radar Cross Section
RCS unknown

Expand to show TLE details & history

TLE from 6 hours ago
0 STARLINK-34496
1 64476U 25133E   25182.50002315 -.01040001  00000-0 -45437-2 0  9998
2 64476  53.1559 216.3014 0001008  63.0958 215.7545 15.86455935  2545
Epoch: 2025-07-01T12:00Z
TLE epoch observation values (Epoch: 2025-07-01T12:00:02Z)
Latitude
-52.41701°
Longitude
41.01011°
Altitude
330.947 km
Speed
7.709 km/s
True Right ascension
09h 23m 15s
True Declination
-52° 14' 24"
Sunlit
Object was in daylight at epoch
Visualization orbit readout
Latitude
-51.4101°
Longitude
46.20535°
Altitude
332.211 km
Speed
7.708 km/s
Apparent Right ascension
14h 14m 24s
Apparent Declination
-63° 42' 03"
Sunlit
Object is in daylight
Visualization observer readout
Local Sidereal Time
05:43:42
Azimuth
145.688° SSE
Elevation
-51.532°
Doppler factor
1
Orbital elements
Apogee altitude
313.166 km
Perigee altitude
311.817 km
Semi-major axis
6,690.628 km
Eccentricity
0.0001
Inclination
53.1559°
RAAN
216.3014°
Arg. of periapsis
63.0958°
True anomaly
Unknown
Mean anomaly
215.7545°
Eccentric anomaly
Unknown
Mean motion
3.96591 °/min
Orbital period
90.77 mins
BSTAR
-0.0045437
Loading maneuver chart data...
Loading SW <> Apogee altitude chart data...
Loading historical data...
Loading historical data...
Loading historical data...
Loading historical data...
Loading historical data...
Loading historical data...
Loading historical data...

STARLINK-34496 Visibility forecast

Observer location: undefined°, undefined°

Span
Click to sort rows by Start time (UTC) header in descending order
Start Az.
Max El. time (UTC)
Max El. Az.
Max El.
End time (UTC)
End Az.
5 mins2025-07-02 05:10:00.244Z236.326° WSW2025-07-02 05:13:00.244Z16.682° NNE39.678°2025-07-02 05:15:00.244Z45.093° ENE
4 mins2025-07-02 11:32:00.244Z323.179° NNW2025-07-02 11:34:00.244Z80.843° E37.204°2025-07-02 11:36:00.244Z118.131° SE
|